星链-36099(STARLINK-36099)

导读 | 豆包AI

STARLINK-36099是美国太空探索技术公司(SpaceX)于2025年12月1日发射的星链卫星,隶属于Starlink全球低轨卫星互联网项目。该卫星运行在近地轨道,轨道倾角约53.16度,近地点约474.6公里,远地点约475.9公里,周期约94.1分钟。它旨在为全球尤其是偏远区域提供高速低延迟互联网服务,助力缩小数字鸿沟,同时可为军事、航空等领域提供通信支持。

基本信息
目录编号:
66797
目录名称:
STARLINK-36099
国际标识:
2025-278G
轨道中心:
EARTH
卫星名称:
星链-36099
卫星全名:
星链-36099(STARLINK-36099)
卫星状态:
在轨 (已飞行124 天)
发射日期:
2025-12-01 UTC
国别 :
美国 (US)
星等 :
--
轨道信息
数据来源 国际轨道数据
星历时间: 2026-04-04T00:44:09+0800
11小时前
查看轨道信息
半长轴: 6861.189km
偏心率: 0.000085
轨道倾角: 42.998°
近地点辐角 246.429°
升交点赤经 333.147°
平近点角 113.647°
近地点: 482.468km
远地点: 483.636km
周期: 94.267分钟
每日圈数: 15.275793
详细信息
固有亮度:
5
最大亮度:
2.5
卫星平台:
Starlink V1.0
覆盖范围:
全球
运营商:
太空探索技术公司
运营商所在国:
美国
制造商(研发单位):
太空探索技术公司
制造商所在国:
美国
使用方式:
暂无
卫星简介
Starlink 计划是 SpaceX 推出的全球卫星互联网项目,通过发射低轨道卫星,为全球尤其是偏远地区提供高速、低延迟的互联网服务。自 2019 年起,Starlink 已部署数千颗卫星,旨在缩小全球数字鸿沟,推动互联网普及。该项目还为军事、航空等行业提供通信支持,带来广泛经济效益。
2D轨道图
3D轨道图
轨道高度分析图
轨道倾角分析图
轨道综合分析图
查看轨道综合分析图